EW3867 Weather Reports


time (UTC)temp
C
wind
direction
speed
KPH
gust
KPH
rain 1hr
cm
rain 24hr
cm
rain mn
cm
humidity
%
barometer
mb
20260903211544 27 197 4.8 0.0 0.00 0.00 0.00 28 1007.5
20260903210533 27 246 1.6 16.1 0.00 0.00 0.00 29 1007.5
20260903205516 26 186 0.0 0.0 0.00 0.00 0.00 29 1007.6
20260903203402 27 242 4.8 24.1 0.00 0.00 0.00 29 1008.0
20260903202423 26 157 6.4 19.3 0.00 0.00 0.00 29 1008.0
20260903201401 26 213 4.8 22.5 0.00 0.00 0.00 28 1008.1
20260903200411 26 202 1.6 14.5 0.00 0.00 0.00 30 1008.2
20260903195423 26 263 6.4 0.0 0.00 0.00 0.00 30 1008.3
20260903194412 26 190 6.4 25.7 0.00 0.00 0.00 30 1008.4
20260903192306 25 215 4.8 24.1 0.00 0.00 0.00 32 1008.8
20260903191228 25 265 6.4 19.3 0.00 0.00 0.00 33 1008.9
20260903190205 25 253 1.6 16.1 0.00 0.00 0.00 33 1009.1
20260903185203 24 246 0.0 1.6 0.00 0.00 0.00 34 1009.1
20260903184202 24 271 0.0 0.0 0.00 0.00 0.00 34 1009.3
20260903183218 24 219 0.0 0.0 0.00 0.00 0.00 36 1009.4
20260903182235 24 211 1.6 16.1 0.00 0.00 0.00 36 1009.5
20260903180115 23 0 1.6 1.6 0.00 0.00 0.00 39 1009.8
20260903175135 23 0 1.6 22.5 0.00 0.00 0.00 36 1010.1
20260903174156 23 229 0.0 14.5 0.00 0.00 0.00 38 1010.1
20260903173221 23 230 4.8 17.7 0.00 0.00 0.00 37 1010.1
20260903172210 22 0 6.4 0.0 0.00 0.00 0.00 38 1010.0
20260903171219 22 251 1.6 20.9 0.00 0.00 0.00 39 1010.0
20260903165127 22 235 12.9 25.7 0.00 0.00 0.00 40 1010.0
20260903164128 22 236 4.8 32.2 0.00 0.00 0.00 40 1010.1
20260903163150 22 219 4.8 32.2 0.00 0.00 0.00 41 1010.0
20260903162149 22 267 9.7 24.1 0.00 0.00 0.00 42 1009.9
20260903161116 21 257 6.4 24.1 0.00 0.00 0.00 42 1009.9
20260903160121 22 186 0.0 0.0 0.00 0.00 0.00 42 1009.9
20260903155048 22 183 0.0 3.2 0.00 0.00 0.00 44 1009.8
20260903154040 22 153 0.0 12.9 0.00 0.00 0.00 45 1009.9
20260903153014 21 124 0.0 9.7 0.00 0.00 0.00 44 1010.0
20260903152009 21 74 0.0 0.0 0.00 0.00 0.00 45 1010.0
20260903145825 21 51 0.0 0.0 0.00 0.00 0.00 47 1010.2
20260903144827 20 51 0.0 0.0 0.00 0.00 0.00 52 1010.3
20260903143753 18 51 0.0 0.0 0.00 0.00 0.00 54 1010.2
20260903142731 17 51 0.0 0.0 0.00 0.00 0.00 60 1010.2
20260903141729 16 52 0.0 0.0 0.00 0.00 0.00 64 1010.3
20260903140728 15 16 0.0 0.0 0.00 0.00 0.00 68 1010.3
20260903135734 13 17 0.0 0.0 0.00 0.00 0.00 70 1010.3
20260903134744 13 16 0.0 0.0 0.00 0.00 0.00 73 1010.3
20260903133714 12 16 0.0 0.0 0.00 0.00 0.00 76 1010.2
20260903132733 11 15 0.0 3.2 0.00 0.00 0.00 77 1010.2
20260903131703 11 15 0.0 0.0 0.00 0.00 0.00 79 1010.0
20260903125504 10 9 0.0 0.0 0.00 0.00 0.00 79 1009.7
20260903124502 10 9 0.0 0.0 0.00 0.00 0.00 81 1009.7
20260903123431 10 9 0.0 0.0 0.00 0.00 0.00 82 1009.5
20260903122447 10 9 0.0 0.0 0.00 0.00 0.00 82 1009.4
20260903121509 10 9 0.0 0.0 0.00 0.00 0.00 82 1009.3
20260903120442 10 9 0.0 0.0 0.00 0.00 0.00 81 1009.3
20260903114326 10 9 0.0 0.0 0.00 0.00 0.00 83 1009.2
20260903113332 10 9 0.0 0.0 0.00 0.00 0.00 82 1009.2
20260903111247 11 9 0.0 0.0 0.00 0.00 0.00 80 1009.1
20260903110312 11 9 0.0 0.0 0.00 0.00 0.00 80 1009.0
20260903105318 11 9 0.0 0.0 0.00 0.00 0.00 80 1008.9
20260903103111 11 9 0.0 0.0 0.00 0.00 0.00 79 1009.0
20260903102037 11 9 0.0 0.0 0.00 0.00 0.00 79 1009.0
20260903101046 11 9 0.0 0.0 0.00 0.00 0.00 79 1009.1
20260903100014 11 9 0.0 0.0 0.00 0.00 0.00 78 1009.1
20260903093901 12 9 0.0 0.0 0.00 0.00 0.00 77 1008.9
20260903092907 12 9 0.0 0.0 0.00 0.00 0.00 77 1009.0
20260903091925 12 9 0.0 0.0 0.00 0.00 0.00 77 1008.9
20260903090937 12 9 0.0 0.0 0.00 0.00 0.00 77 1008.8
20260903084805 12 9 0.0 0.0 0.00 0.00 0.00 76 1008.6
20260903083740 12 9 0.0 0.0 0.00 0.00 0.00 75 1008.6
20260903081612 12 9 0.0 0.0 0.00 0.00 0.00 76 1008.8
20260903075403 12 9 0.0 0.0 0.00 0.00 0.00 75 1008.8
20260903074422 13 9 0.0 0.0 0.00 0.00 0.00 74 1008.7
20260903072244 13 9 0.0 0.0 0.00 0.00 0.00 72 1008.8
20260903070153 13 9 0.0 0.0 0.00 0.00 0.00 71 1008.6
20260903065145 13 9 0.0 0.0 0.00 0.00 0.00 71 1008.6
20260903063054 14 9 0.0 0.0 0.00 0.00 0.00 70 1008.5
20260903062112 14 9 0.0 3.2 0.00 0.00 0.00 69 1008.4
20260903061100 15 9 0.0 1.6 0.00 0.00 0.00 68 1008.4
20260903060057 15 9 0.0 0.0 0.00 0.00 0.00 69 1008.4
20260903053908 15 9 0.0 0.0 0.00 0.00 0.00 69 1008.3
20260903052849 15 9 0.0 0.0 0.00 0.00 0.00 68 1008.3
20260903051905 15 9 0.0 0.0 0.00 0.00 0.00 67 1008.3
20260903050850 16 9 0.0 0.0 0.00 0.00 0.00 67 1008.3
20260903045911 16 9 0.0 0.0 0.00 0.00 0.00 67 1008.3
20260903044844 16 9 0.0 0.0 0.00 0.00 0.00 68 1008.4
20260903042735 15 9 0.0 0.0 0.00 0.00 0.00 69 1008.3
20260903041742 15 9 0.0 1.6 0.00 0.00 0.00 69 1008.4
20260903040723 15 9 0.0 0.0 0.00 0.00 0.00 69 1008.2
20260903035659 15 9 6.4 12.9 0.00 0.00 0.00 69 1008.1
20260903034628 16 9 0.0 0.0 0.00 0.00 0.00 69 1008.1
20260903030149 16 5 0.0 0.0 0.00 0.00 0.00 64 1007.6
20260903024037 17 5 0.0 0.0 0.00 0.00 0.00 62 1007.4
20260903020728 19 5 0.0 0.0 0.00 0.00 0.00 53 1007.2
20260903015712 19 5 0.0 0.0 0.00 0.00 0.00 51 1006.9
20260903013540 20 5 0.0 0.0 0.00 0.00 0.00 48 1007.1
20260903012543 21 5 0.0 0.0 0.00 0.00 0.00 47 1007.2
20260903011530 21 5 1.6 6.4 0.00 0.00 0.00 48 1007.4
20260903010512 21 0 11.3 17.7 0.00 0.00 0.00 50 1007.4
20260903005444 21 350 1.6 14.5 0.00 0.00 0.00 50 1007.3
20260903003328 21 355 11.3 20.9 0.00 0.00 0.00 47 1007.3
20260903001143 21 5 20.9 25.7 0.00 0.00 0.00 49 1007.5
20260903000143 21 15 17.7 25.7 0.00 0.00 0.00 50 1007.5
20260902235207 22 355 9.7 20.9 0.00 0.00 0.00 47 1007.7
20260902234150 21 0 11.3 20.9 0.00 0.00 0.00 48 1007.9
20260902232018 20 0 20.9 38.6 0.00 0.00 0.00 55 1007.9
20260902225855 21 0 25.7 43.5 0.00 0.00 0.00 50 1008.0
20260902223731 24 198 1.6 14.5 0.00 0.00 0.00 35 1006.9
20260902222712 25 252 0.0 1.6 0.00 0.00 0.00 36 1006.8
20260902220627 26 265 0.0 0.0 0.00 0.00 0.00 35 1007.2
20260902215646 25 0 0.0 0.0 0.00 0.00 0.00 38 1007.3
20260902214659 24 247 0.0 9.7 0.00 0.00 0.00 38 1007.6
20260902213708 25 0 6.4 0.0 0.00 0.00 0.00 36 1007.7